Findlay, OH

4:27 PM EST on December 14, 2019 (GMT -0500)
Findlay

Weather History for KFDY - July, 2019

Change the Weather History Date:

Thursday, July 25, 2019

  Actual Average Record
Temperature  
Mean Temperature 71 °F -  
Max Temperature 82 °F 83 °F 92 °F (1949)
Min Temperature 60 °F 63 °F 51 °F (1953)
Cooling Degree Days 6    
Growing Degree Days 21 (Base 50)    
Moisture  
Dew Point 57 °F    
Average Humidity 62    
Maximum Humidity 90    
Minimum Humidity 38    
Precipitation  
Precipitation 0.00 in - - ()
Sea Level Pressure  
Sea Level Pressure 30.17 in    
Wind  
Wind Speed 1 mph (SSW)    
Max Wind Speed 5 mph    
Max Gust Speed -    
Visibility 10 miles    
Events      
Averages and records for this station are not official NWS values.
T = Trace of Precipitation, MM = Missing Value Source: NWS Daily Summary

Daily Weather History Graph

Daily Weather History Graph

Search for Another Location

Airport or City:

Astronomy

Jul. 25, 2019 Rise Set
Actual Time 6:23 AM EDT 8:58 PM EDT
Civil Twilight 5:52 AM EDT 9:29 PM EDT
Nautical Twilight 5:12 AM EDT 10:08 PM EDT
Astronomical Twilight 4:28 AM EDT 10:53 PM EDT
Moon 1:09 AM EDT (7/25) 2:37 PM EDT (7/25)
Length of Visible Light 15h 37m
Length of Day
14h 34m
Last Quarter, 44% of the Moon is Illuminated
Jul 25
Last Quarter
Jul 31
New
Aug 7
First Quarter
Aug 15
Full
Aug 23
Last Quarter

Hourly Weather History & Observations

Time (EDT) Temp. Heat Index Dew Point Humidity Pressure Visibility Wind Dir Wind Speed Gust Speed Precip Events Conditions
12:53 AM 64.0 °F - 57.0 °F 78% 30.12 in 10.0 mi West 3.5 mph - N/A   Clear
1:53 AM 64.0 °F - 57.0 °F 78% 30.12 in 10.0 mi Calm Calm - N/A   Clear
2:53 AM 61.0 °F - 57.0 °F 87% 30.12 in 10.0 mi Calm Calm - N/A   Clear
3:53 AM 62.1 °F - 57.9 °F 86% 30.13 in 10.0 mi Calm Calm - N/A   Clear
4:53 AM 60.1 °F - 55.9 °F 86% 30.14 in 10.0 mi Calm Calm - N/A   Clear
5:53 AM 60.1 °F - 57.0 °F 90% 30.15 in 10.0 mi Calm Calm - N/A   Clear
6:53 AM 60.1 °F - 57.0 °F 90% 30.17 in 10.0 mi Calm Calm - N/A   Clear
7:53 AM 64.0 °F - 59.0 °F 84% 30.18 in 10.0 mi Calm Calm - N/A   Clear
8:53 AM 70.0 °F - 57.9 °F 65% 30.19 in 10.0 mi Calm Calm - N/A   Clear
9:53 AM 75.0 °F - 57.0 °F 53% 30.20 in 10.0 mi Calm Calm - N/A   Clear
10:53 AM 77.0 °F - 57.0 °F 50% 30.20 in 10.0 mi Variable 4.6 mph - N/A   Clear
11:53 AM 79.0 °F - 55.9 °F 45% 30.21 in 10.0 mi West 3.5 mph - N/A   Clear
12:53 PM 80.1 °F 80.2 °F 55.9 °F 43% 30.20 in 10.0 mi Variable 4.6 mph - N/A   Clear
1:53 PM 82.0 °F 81.3 °F 54.0 °F 38% 30.19 in 10.0 mi Variable 3.5 mph - N/A   Partly Cloudy
2:53 PM 82.0 °F 81.4 °F 55.0 °F 39% 30.18 in 10.0 mi Calm Calm - N/A   Mostly Cloudy
3:53 PM 81.0 °F 80.8 °F 55.9 °F 42% 30.18 in 10.0 mi South 3.5 mph - N/A   Mostly Cloudy
4:53 PM 82.0 °F 81.4 °F 55.0 °F 39% 30.17 in 10.0 mi Calm Calm - N/A   Overcast
5:53 PM 82.9 °F 82.0 °F 55.0 °F 38% 30.17 in 10.0 mi Calm Calm - N/A   Partly Cloudy
6:53 PM 82.0 °F 81.4 °F 55.0 °F 39% 30.16 in 10.0 mi Calm Calm - N/A   Clear
7:53 PM 79.0 °F - 57.9 °F 48% 30.17 in 10.0 mi Calm Calm - N/A   Clear
8:53 PM 78.1 °F - 59.0 °F 52% 30.17 in 10.0 mi Calm Calm - N/A   Clear
9:53 PM 73.0 °F - 61.0 °F 66% 30.19 in 10.0 mi SSE 3.5 mph - N/A   Clear
10:53 PM 71.1 °F - 61.0 °F 70% 30.20 in 10.0 mi South 3.5 mph - N/A   Clear
11:53 PM 69.1 °F - 63.0 °F 81% 30.20 in 10.0 mi Calm Calm - N/A   Clear